This is the latest recevied weather packets stored in our database for station/object SV9TNF-2. If no packets are shown the sender has not sent any weather packets the latest 10 day(s).
| Time | Temp. | Humidity | Pressure | Rain* | Wind** | Luminosity | Snow |
|---|---|---|---|---|---|---|---|
| 1777653326 | 16.11° C | 73% | 1022 hPa | 0 mm | 8.05 m/s, 85° | - | - |
| 1777653026 | 16.11° C | 75% | 1022 hPa | 0 mm | 6.26 m/s, 64° | - | - |
| 1777652726 | 16.11° C | 76% | 1022 hPa | 0 mm | 6.26 m/s, 61° | - | - |
| 1777652426 | 16.11° C | 75% | 1022 hPa | 0 mm | 9.83 m/s, 79° | - | - |
| 1777652125 | 16.67° C | 76% | 1022 hPa | 0 mm | 4.92 m/s, 116° | - | - |
| 1777651825 | 16.11° C | 74% | 1022 hPa | 0 mm | 8.94 m/s, 54° | - | - |
| 1777651525 | 16.11° C | 73% | 1022 hPa | 0 mm | 9.83 m/s, 81° | - | - |
| 1777651225 | 16.11° C | 74% | 1022 hPa | 0 mm | 6.26 m/s, 86° | - | - |
| 1777650925 | 16.11° C | 74% | 1021.7 hPa | 0 mm | 12.07 m/s, 72° | - | - |
| 1777650625 | 16.11° C | 75% | 1021.7 hPa | 0 mm | 10.28 m/s, 77° | - | - |
| 1777650325 | 16.11° C | 76% | 1021.7 hPa | 0 mm | 7.15 m/s, 224° | - | - |
| 1777650025 | 16.11° C | 76% | 1021.7 hPa | 0 mm | 8.05 m/s, 63° | - | - |
| 1777649725 | 16.11° C | 76% | 1021.7 hPa | 0 mm | 6.71 m/s, 81° | - | - |
| 1777649425 | 16.67° C | 76% | 1021.7 hPa | 0 mm | 6.26 m/s, 62° | - | - |
| 1777649125 | 16.67° C | 77% | 1021.7 hPa | 0 mm | 9.39 m/s, 81° | - | - |
| 1777648824 | 16.11° C | 76% | 1022 hPa | 0 mm | 8.05 m/s, 57° | - | - |
| 1777648525 | 16.67° C | 76% | 1022 hPa | 0 mm | 5.36 m/s, 21° | - | - |
| 1777648224 | 16.67° C | 76% | 1022 hPa | 0 mm | 8.49 m/s, 68° | - | - |
| 1777647924 | 16.67° C | 76% | 1022 hPa | 0 mm | 7.15 m/s, 86° | - | - |
| 1777647626 | 16.67° C | 76% | 1022 hPa | 0 mm | 6.71 m/s, 95° | - | - |
| 1777647324 | 16.67° C | 76% | 1022 hPa | 0 mm | 7.15 m/s, 65° | - | - |
| 1777647025 | 16.67° C | 76% | 1022 hPa | 0 mm | 5.81 m/s, 88° | - | - |
| 1777646724 | 16.67° C | 75% | 1022 hPa | 0 mm | 7.15 m/s, 90° | - | - |
| 1777646424 | 16.67° C | 75% | 1022 hPa | 0 mm | 4.92 m/s, 105° | - | - |
| 1777646127 | 16.67° C | 75% | 1022 hPa | 0 mm | 8.05 m/s, 104° | - | - |
* Rain latest hour (hover to see other rain measurements)
** Current wind speed in m/s (hover to see current wind gust speed)